This demonstration page uses our WeatherBlox Daily Observations layout. Learn more.

Left ArrowRight Arrow

38.20091, -84.87328

Hourly Observations for July 23, 2021

Temp ( °F °C ) Dew Point ( °F °C ) Humidity (%) Winds ( mph kmh ) Pressure ( in mb ) Visibility ( mi km ) Precip ( " mm )
12:53 am 00:53 Clear 65 18.3 62 16.7 90 90 Calm 30.16 1021 10 16 0.00 0.00
1:53 am 01:53 Clear 64 17.8 61 16.1 90 90 Calm 30.16 1021 10 16 0.00 0.00
2:53 am 02:53 Clear 63 17.2 61 16.1 93 93 Calm 30.15 1021 10 16 0.00 0.00
3:53 am 03:53 Clear 63 17.2 61 16.1 93 93 Calm 30.14 1021 10 16 0.00 0.00
4:53 am 04:53 Clear 62 16.7 59 15 90 90 NNW 3 6 30.15 1021 10 16 0.00 0.00
5:53 am 05:53 Clear 62 16.7 59 15 90 90 Calm 30.16 1021 10 16 0.00 0.00
6:53 am 06:53 Sunny 60 15.6 58 14.4 93 93 Calm 30.16 1022 7 11 0.00 0.00
7:53 am 07:53 Sunny 65 18.3 62 16.7 90 90 Calm 30.18 1022 10 16 0.00 0.00
8:53 am 08:53 Sunny 67 19.4 64 17.8 91 91 Calm 30.19 1022 10 16 0.00 0.00
9:53 am 09:53 Sunny 73 22.8 65 18.3 76 76 Calm 30.19 1023 10 16 0.00 0.00
10:53 am 10:53 Sunny 76 24.4 63 17.2 64 64 VRB 3 6 30.19 1022 10 16 0.00 0.00
11:53 am 11:53 Sunny 80 26.7 62 16.7 54 54 VRB 3 6 30.19 1023 10 16 0.00 0.00
12:53 pm 12:53 Sunny 82 27.8 62 16.7 51 51 undefined N/A 30.17 1022 10 16 0.00 0.00
1:53 pm 13:53 Sunny 84 28.9 61 16.1 46 46 VRB 7 11 30.16 1021 10 16 0.00 0.00
2:53 pm 14:53 Sunny 85 29.4 61 16.1 45 45 VRB 5 7 30.14 1021 10 16 0.00 0.00
3:53 pm 15:53 Sunny 84 28.9 62 16.7 48 48 ESE 6 9 30.13 1020 10 16 0.00 0.00
4:53 pm 16:53 Sunny 85 29.4 61 16.1 45 45 E 7 11 30.11 1020 10 16 0.00 0.00
5:53 pm 17:53 Sunny 85 29.4 61 16.1 45 45 ESE 6 9 30.09 1019 10 16 0.00 0.00
6:53 pm 18:53 Sunny 84 28.9 62 16.7 48 48 ENE 3 6 30.09 1019 10 16 0.00 0.00
7:53 pm 19:53 Sunny 82 27.8 62 16.7 51 51 E 5 7 30.08 1019 10 16 0.00 0.00
8:53 pm 20:53 Sunny 74 23.3 66 18.9 76 76 Calm 30.08 1019 10 16 0.00 0.00
9:53 pm 21:53 Clear 71 21.7 64 17.8 79 79 Calm 30.08 1019 10 16 0.00 0.00
10:53 pm 22:53 Clear 69 20.6 64 17.8 84 84 Calm 30.09 1019 10 16 0.00 0.00
11:53 pm 23:53 Clear 69 20.6 65 18.3 87 87 Calm 30.09 1019 10 16 0.00 0.00

Powered by AerisWeather